EW6511 Weather Reports


Display with metric or nautical units.
time (UTC)temp
F
wind
direction
speed
MPH
gust
MPH
rain 1hr
in
rain 24hr
in
rain mn
in
humidity
%
barometer
mb
20260504230639 47 53 0.0 2.0 0.00 0.09 0.00 84 1014.4
20260504225638 47 53 0.0 2.0 0.00 0.09 0.00 84 1014.5
20260504222636 47 53 0.0 3.0 0.00 0.09 0.00 84 1014.7
20260504221636 48 53 0.0 0.0 0.00 0.09 0.00 84 1014.8
20260504220637 48 53 0.0 0.0 0.00 0.09 0.00 84 1014.7
20260504215634 47 53 0.0 0.0 0.00 0.09 0.09 83 1014.7
20260504214636 48 53 0.0 0.0 0.00 0.09 0.09 83 1014.8
20260504212632 48 53 0.0 0.0 0.00 0.09 0.09 83 1014.9
20260504211629 48 53 1.0 3.0 0.00 0.09 0.09 83 1015.0
20260504205627 49 53 0.0 0.0 0.00 0.09 0.09 83 1015.2
20260504204629 50 53 1.0 2.0 0.00 0.09 0.09 83 1015.1
20260504203622 50 53 1.0 3.0 0.00 0.09 0.09 82 1015.3
20260504202622 50 53 3.0 3.0 0.00 0.09 0.09 82 1015.3
20260504201622 51 46 2.0 3.0 0.00 0.09 0.09 81 1015.4
20260504200622 51 43 1.0 2.0 0.00 0.09 0.09 80 1015.6
20260504195623 51 43 1.0 3.0 0.00 0.09 0.09 80 1015.5
20260504194623 51 119 0.0 3.0 0.00 0.09 0.09 80 1015.4
20260504193621 51 121 2.0 4.0 0.00 0.09 0.09 80 1015.4
20260504192623 51 121 3.0 4.0 0.00 0.09 0.09 80 1015.3
20260504191622 51 185 2.0 3.0 0.00 0.09 0.09 80 1015.3
20260504190618 52 185 0.0 2.0 0.00 0.09 0.09 80 1015.4
20260504185618 52 185 0.0 1.0 0.00 0.09 0.09 80 1015.4
20260504184619 52 185 0.0 1.0 0.00 0.09 0.09 79 1015.4
20260504183615 52 185 1.0 2.0 0.00 0.09 0.09 79 1015.4
20260504182613 52 186 2.0 4.0 0.00 0.09 0.09 79 1015.4
20260504181613 52 248 1.0 3.0 0.00 0.09 0.09 80 1015.6
20260504180613 52 248 2.0 3.0 0.00 0.09 0.09 80 1015.5
20260504175615 52 248 1.0 3.0 0.00 0.09 0.09 80 1015.6
20260504172609 52 238 2.0 4.0 0.00 0.09 0.09 79 1015.8
20260504170607 52 255 3.0 6.0 0.00 0.09 0.09 79 1016.0
20260504150608 53 284 9.0 15.0 0.06 0.09 0.09 76 1016.7
20260504140614 55 258 11.0 18.0 0.02 0.02 0.02 68 1016.7
20260504130603 59 279 11.0 15.0 0.00 0.01 0.00 55 1016.1
20260504110558 61 328 7.0 11.0 0.00 0.01 0.00 53 1015.5
20260504100556 62 45 5.0 10.0 0.00 0.01 0.00 54 1015.6
20260504081558 58 40 8.0 12.0 0.00 0.01 0.00 59 1016.0
20260504080557 58 48 7.0 12.0 0.00 0.01 0.00 57 1016.2
20260504050552 50 62 2.0 4.0 0.00 0.01 0.00 69 1016.3
20260504045552 50 61 2.0 4.0 0.00 0.01 0.00 69 1016.3
20260504044553 49 43 2.0 4.0 0.00 0.01 0.00 69 1016.5
20260504043547 49 44 1.0 3.0 0.00 0.01 0.00 68 1016.5
20260504041546 50 119 0.0 3.0 0.00 0.01 0.00 68 1016.5
20260504040548 49 119 0.0 0.0 0.00 0.01 0.00 68 1016.5
20260504035547 50 113 0.0 0.0 0.00 0.01 0.00 68 1016.6
20260504031546 50 113 0.0 0.0 0.00 0.01 0.00 67 1016.8
20260504030541 50 113 0.0 0.0 0.00 0.01 0.00 67 1016.7
20260504025540 50 113 0.0 0.0 0.00 0.01 0.00 66 1016.9
20260504024540 50 113 0.0 0.0 0.00 0.01 0.00 67 1016.9
20260504023540 50 113 0.0 0.0 0.00 0.01 0.00 67 1017.0
20260504022540 50 113 0.0 0.0 0.00 0.01 0.00 67 1017.0
20260504021541 51 113 0.0 0.0 0.00 0.01 0.00 66 1017.1
20260504015540 50 113 0.0 0.0 0.00 0.01 0.00 66 1017.2
20260504014542 50 113 0.0 1.0 0.00 0.01 0.00 67 1017.0
20260504013541 50 113 1.0 2.0 0.00 0.01 0.00 67 1017.1
20260504012541 50 113 1.0 3.0 0.00 0.01 0.00 67 1017.0
20260504011538 50 113 1.0 3.0 0.00 0.01 0.00 67 1017.0
20260504010537 50 113 1.0 3.0 0.00 0.01 0.00 66 1017.1
20260504004539 51 116 0.0 1.0 0.00 0.01 0.00 64 1017.1
20260504003539 51 116 1.0 2.0 0.00 0.01 0.00 65 1017.3
20260504002539 51 116 1.0 2.0 0.00 0.01 0.00 65 1017.3
20260504001533 51 116 0.0 0.0 0.00 0.01 0.00 65 1017.4
20260503235531 52 116 1.0 3.0 0.00 0.01 0.00 64 1017.6
20260503234529 52 116 0.0 2.0 0.00 0.01 0.00 64 1017.7
20260503233527 52 116 1.0 2.0 0.00 0.01 0.00 64 1017.7
20260503232526 53 116 1.0 2.0 0.00 0.01 0.00 62 1017.7
20260503231525 53 116 2.0 3.0 0.00 0.01 0.00 63 1017.8